Regional Weather Roundup
Issued by NWS

Home | Current Version | Previous Version | Graphics & Text | Print | Product List | Glossary On
Versions: 1 2 3 4 5 6 7 8 9 10 11 12 13 14 15 16 17 18 19 20 21 22 23 24 25 26 27 28 29 30 31 32 33 34 35 36 37 38 39 40 41 42 43 44 45 46 47 48 49 50
972
ASUS43 KIND 250909
RWRIN

WEATHER ROUNDUP FOR INDIANA
NATIONAL WEATHER SERVICE INDIANAPOLIS IN
500 AM EDT SUN SEP 25 2016

NOTE: "FAIR" INDICATES FEW OR NO CLOUDS BELOW 12,000 FEET WITH NO
SIGNIFICANT WEATHER AND/OR OBSTRUCTIONS TO VISIBILITY.

* - STATION DOES NOT REPORT WEATHER SUCH AS PRECIPITATION OR FOG.

+ - STATION NOT QUALITY CONTROLLED BY THE NATIONAL WEATHER SERVICE.
    USE DATA WITH CAUTION...ESPECIALLY DEWPOINT AND RELATIVE
    HUMIDITY OBSERVATIONS.

INZ001>003-010>013-019-020-251000-
NORTHWEST INDIANA

CITY           SKY/WX    TMP DP  RH WIND       PRES   REMARKS
GARY /AIRPORT/ CLEAR     66  60  81 SE9G16    30.12S
KNOX *+        CLEAR     59  39  47 E5        30.15S
LA PORTE +     CLEAR     62  62 100 SE5       30.16S
MICHIGAN CITY+ CLEAR     61  55  82 MISG      30.15S
MONTICELLO +   CLEAR     62  55  77 E5        30.13S
RENSSELAER +   CLEAR     61  61 100 E5        30.13F
VALPARAISO     CLEAR     61  57  87 E5        30.15S

$$

LMZ046-743>745-251000-
SOUTHERN LAKE MICHIGAN

STATION/POSITION TIME  TEMP    WIND        PRES    WAVE
                       AIR SEA DIR/SP/G            HT
                 (UTC) (F)     (DEG/KT/KT) (MB)    (FT)
BURNS HARBOR     0800   66     140/ 13/ 19 1020.3F
MICHIGAN CITY    0800   64     120/ 11/ 13   N/A
5NW MICH CITY    0900   64 68  150/ 12/ 16   N/A     1

$$

INZ004-005-014>016-021>024-251000-
NORTH CENTRAL INDIANA

CITY           SKY/WX    TMP DP  RH WIND       PRES   REMARKS
GOSHEN         CLEAR     59  51  75 SE7       30.16F
LOGANSPORT +   CLEAR     59  54  82 E7        30.15F
PERU/GRISSOM   CLEAR     60  54  80 E7        30.13F
ROCHESTER +    CLEAR     61  55  82 SE6       30.16S
SOUTH BEND     MOCLDY    60  54  80 SE10      30.16S
WARSAW +       CLEAR     57  50  77 SE6       30.17S

$$

INZ006>009-017-018-025>027-251000-
NORTHEAST INDIANA

CITY           SKY/WX    TMP DP  RH WIND       PRES   REMARKS
ANGOLA *+        N/A     55  45  67 SE6       30.18S
AUBURN +       CLEAR     55  50  82 E3        30.19S
FORT WAYNE     CLEAR     57  50  77 E6        30.17F
HUNTINGTON +   CLEAR     57  52  84 CALM      30.17S
KENDALLVILLE + CLEAR     56  52  86 SE6       30.18S

$$

INZ028-029-035-036-043>045-051>053-251000-
WEST CENTRAL INDIANA

CITY           SKY/WX    TMP DP  RH WIND       PRES   REMARKS
CRAWFORDSVL +  CLEAR     61  61 100 E3        30.11F
GREENCASTLE +  CLEAR     64  64 100 CALM      30.12S
LAFAYETTE      CLEAR     63  60  90 E10       30.12S
TERRE HAUTE    CLEAR     66  64  93 CALM      30.09F

$$

INZ030>032-037>040-046>048-054>057-064-065-251000-
CENTRAL INDIANA

CITY           SKY/WX    TMP DP  RH WIND       PRES   REMARKS
FISHERS *+     CLEAR     61  61 100 CALM      30.14R
GREENWOOD *+   CLEAR    N/A N/A N/A CALM      30.13S
INDIANAPOLIS   CLEAR     67  60  78 E6        30.11S
-EAGLE CREEK   CLEAR     65  60  84 NE5       30.12S
MARION +       CLEAR     58  52  80 E6        30.16S
MT COMFORT *+  CLEAR     61  59  94 NE3       30.13S
SHELBYVILLE    CLEAR     64  60  87 E5        30.11F
ZIONSVILLE +   CLEAR     61  59  92 E3        30.14S

$$

INZ033-034-041-042-049-050-058-059-251000-
EAST CENTRAL INDIANA

CITY           SKY/WX    TMP DP  RH WIND       PRES   REMARKS
MUNCIE         CLEAR     59  55  87 E3        30.15F

$$

INZ060-061-067>069-081>083-085>088-251000-
SOUTHWEST INDIANA

CITY           SKY/WX    TMP DP  RH WIND       PRES   REMARKS
EVANSVILLE     CLEAR     67  64  90 NE3       30.08S
HUNTINGBURG *+   N/A     66  63  88 CALM      30.09S
WASHINGTON +   FOG      N/A N/A N/A MISG      30.08S VSB 1

$$

INZ062-063-066-070>080-084-089>092-251000-
SOUTH CENTRAL AND SOUTHEAST INDIANA

CITY           SKY/WX    TMP DP  RH WIND       PRES   REMARKS
BLOOMINGTON    CLEAR     67  63  87 CALM      30.11S
MADISON *+     CLEAR     68  63  83 E3        30.13S
NORTH VERNON + CLEAR    N/A N/A N/A E5        30.12F HAZE
SEYMOUR +      CLEAR     64  63  94 CALM      30.10F FOG

$$





USA.gov is the U.S. government's official web portal to all federal, state and local government web resources and services.